Time,TemperatureF,DewpointF,PressureIn,WindDirection,WindDirectionDegrees,WindSpeedMPH,WindSpeedGustMPH,Humidity,HourlyPrecipIn,Conditions,Clouds,dailyrainin,SoftwareType,DateUTC
2013-02-10 00:00:00,40.8,36.7,30.30,West,281,1.0,1.0,85,0.00,,---,0.00,VWS V14.01,2013-02-10 05:00:00,
2013-02-10 00:05:00,40.8,36.0,30.30,West,281,0.0,1.0,83,0.00,,---,0.00,VWS V14.01,2013-02-10 05:05:00,
2013-02-10 00:10:00,40.9,36.1,30.29,West,281,1.0,1.0,83,0.00,,---,0.00,VWS V14.01,2013-02-10 05:10:00,
2013-02-10 00:15:00,40.9,36.1,30.29,West,281,0.0,1.0,83,0.00,,---,0.00,VWS V14.01,2013-02-10 05:15:00,
2013-02-10 00:20:00,40.9,35.8,30.29,West,281,0.0,1.0,82,0.00,,---,0.00,VWS V14.01,2013-02-10 05:20:00,
2013-02-10 00:25:00,41.0,36.2,30.29,West,281,0.0,1.0,83,0.00,,---,0.00,VWS V14.01,2013-02-10 05:25:00,
2013-02-10 00:30:00,41.0,35.9,30.30,West,281,0.0,1.0,82,0.00,,---,0.00,VWS V14.01,2013-02-10 05:30:00,
2013-02-10 00:35:00,41.1,36.3,30.30,West,281,1.0,1.0,83,0.00,,---,0.00,VWS V14.01,2013-02-10 05:35:00,
2013-02-10 00:40:00,41.1,36.3,30.30,West,281,0.0,1.0,83,0.00,,---,0.00,VWS V14.01,2013-02-10 05:40:00,
2013-02-10 00:45:00,41.1,36.0,30.30,West,281,0.0,1.0,82,0.00,,---,0.00,VWS V14.01,2013-02-10 05:45:00,
2013-02-10 00:50:00,41.1,36.3,30.29,West,281,0.0,1.0,83,0.00,,---,0.00,VWS V14.01,2013-02-10 05:50:00,
2013-02-10 00:55:00,41.0,37.1,30.30,West,281,0.0,2.0,86,0.00,,---,0.00,VWS V14.01,2013-02-10 05:55:00,
2013-02-10 01:00:00,40.9,35.5,30.30,West,281,1.0,2.0,81,0.00,,---,0.00,VWS V14.01,2013-02-10 06:00:00,
2013-02-10 01:05:00,40.9,35.8,30.30,West,281,0.0,2.0,82,0.00,,---,0.00,VWS V14.01,2013-02-10 06:05:00,
2013-02-10 01:10:00,40.9,36.1,30.29,West,281,0.0,1.0,83,0.00,,---,0.00,VWS V14.01,2013-02-10 06:10:00,
2013-02-10 01:15:00,40.8,35.4,30.29,West,281,0.0,2.0,81,0.00,,---,0.00,VWS V14.01,2013-02-10 06:15:00,
2013-02-10 01:20:00,40.8,35.4,30.29,West,281,0.0,2.0,81,0.00,,---,0.00,VWS V14.01,2013-02-10 06:20:00,
2013-02-10 01:25:00,40.9,35.2,30.29,West,281,0.0,2.0,80,0.00,,---,0.00,VWS V14.01,2013-02-10 06:25:00,
2013-02-10 01:30:00,40.9,35.5,30.29,West,281,1.0,2.0,81,0.00,,---,0.00,VWS V14.01,2013-02-10 06:30:00,
2013-02-10 01:35:00,40.9,35.2,30.30,West,281,0.0,2.0,80,0.00,,---,0.00,VWS V14.01,2013-02-10 06:35:00,
2013-02-10 01:40:00,40.9,35.2,30.29,West,281,0.0,1.0,80,0.00,,---,0.00,VWS V14.01,2013-02-10 06:40:00,
2013-02-10 01:45:00,40.8,35.4,30.29,West,281,1.0,1.0,81,0.00,,---,0.00,VWS V14.01,2013-02-10 06:45:00,
2013-02-10 01:50:00,40.7,35.3,30.29,West,281,2.0,2.0,81,0.00,,---,0.00,VWS V14.01,2013-02-10 06:50:00,
2013-02-10 01:55:00,40.5,35.1,30.28,West,281,0.0,2.0,81,0.00,,---,0.00,VWS V14.01,2013-02-10 06:55:00,
2013-02-10 02:00:00,40.2,34.8,30.27,West,281,1.0,2.0,81,0.00,,---,0.00,VWS V14.01,2013-02-10 07:00:00,
2013-02-10 02:05:00,40.0,35.0,30.28,West,281,1.0,2.0,82,0.00,,---,0.00,VWS V14.01,2013-02-10 07:05:00,
2013-02-10 02:10:00,39.9,34.9,30.29,West,281,1.0,2.0,82,0.00,,---,0.00,VWS V14.01,2013-02-10 07:10:00,
2013-02-10 02:15:00,40.0,35.6,30.30,West,281,1.0,2.0,84,0.00,,---,0.00,VWS V14.01,2013-02-10 07:15:00,
2013-02-10 02:20:00,40.1,34.8,30.30,West,281,1.0,3.0,81,0.00,,---,0.00,VWS V14.01,2013-02-10 07:20:00,
2013-02-10 02:25:00,40.4,35.3,30.30,West,281,1.0,3.0,82,0.00,,---,0.00,VWS V14.01,2013-02-10 07:25:00,
2013-02-10 02:30:00,40.6,35.2,30.30,West,281,0.0,3.0,81,0.00,,---,0.00,VWS V14.01,2013-02-10 07:30:00,
2013-02-10 02:35:00,40.7,35.3,30.30,West,281,0.0,3.0,81,0.00,,---,0.00,VWS V14.01,2013-02-10 07:35:00,
2013-02-10 02:40:00,40.7,35.3,30.30,West,281,1.0,1.0,81,0.00,,---,0.00,VWS V14.01,2013-02-10 07:40:00,
2013-02-10 02:45:00,40.8,35.4,30.30,West,281,0.0,1.0,81,0.00,,---,0.00,VWS V14.01,2013-02-10 07:45:00,
2013-02-10 02:50:00,40.8,35.4,30.30,West,281,0.0,1.0,81,0.00,,---,0.00,VWS V14.01,2013-02-10 07:50:00,
2013-02-10 02:55:00,40.9,35.8,30.30,West,281,0.0,1.0,82,0.00,,---,0.00,VWS V14.01,2013-02-10 07:55:00,
2013-02-10 03:00:00,41.0,35.9,30.29,West,281,1.0,1.0,82,0.00,,---,0.00,VWS V14.01,2013-02-10 08:00:00,
2013-02-10 03:05:00,41.0,35.6,30.29,West,281,0.0,1.0,81,0.00,,---,0.00,VWS V14.01,2013-02-10 08:05:00,
2013-02-10 03:10:00,40.9,35.8,30.29,West,281,0.0,0.0,82,0.00,,---,0.00,VWS V14.01,2013-02-10 08:10:00,
2013-02-10 03:15:00,40.8,36.0,30.29,West,281,0.0,1.0,83,0.00,,---,0.00,VWS V14.01,2013-02-10 08:15:00,
2013-02-10 03:20:00,40.7,36.0,30.28,West,281,0.0,1.0,83,0.00,,---,0.00,VWS V14.01,2013-02-10 08:20:00,
2013-02-10 03:25:00,40.6,35.8,30.28,West,281,0.0,1.0,83,0.00,,---,0.00,VWS V14.01,2013-02-10 08:25:00,
2013-02-10 03:30:00,40.5,35.8,30.28,West,281,0.0,1.0,83,0.00,,---,0.00,VWS V14.01,2013-02-10 08:30:00,
2013-02-10 03:35:00,40.5,36.0,30.29,West,281,0.0,1.0,84,0.00,,---,0.00,VWS V14.01,2013-02-10 08:35:00,
2013-02-10 03:40:00,40.5,36.3,30.29,West,281,0.0,1.0,85,0.00,,---,0.00,VWS V14.01,2013-02-10 08:40:00,
2013-02-10 03:45:00,40.5,36.3,30.29,West,281,1.0,1.0,85,0.00,,---,0.00,VWS V14.01,2013-02-10 08:45:00,
2013-02-10 03:50:00,40.6,36.2,30.29,West,281,0.0,1.0,84,0.00,,---,0.00,VWS V14.01,2013-02-10 08:50:00,
2013-02-10 03:55:00,40.7,36.5,30.28,West,281,0.0,1.0,85,0.00,,---,0.00,VWS V14.01,2013-02-10 08:55:00,
2013-02-10 04:00:00,40.9,36.8,30.28,West,281,0.0,1.0,85,0.00,,---,0.00,VWS V14.01,2013-02-10 09:00:00,
2013-02-10 04:05:00,40.9,36.8,30.28,West,281,0.0,1.0,85,0.00,,---,0.00,VWS V14.01,2013-02-10 09:05:00,
2013-02-10 04:10:00,40.9,36.8,30.28,West,281,0.0,1.0,85,0.00,,---,0.00,VWS V14.01,2013-02-10 09:10:00,
2013-02-10 04:15:00,41.0,36.8,30.28,West,281,0.0,1.0,85,0.00,,---,0.00,VWS V14.01,2013-02-10 09:15:00,
2013-02-10 04:20:00,41.0,38.0,30.28,West,281,0.0,1.0,89,0.00,,---,0.00,VWS V14.01,2013-02-10 09:20:00,
2013-02-10 04:25:00,41.1,36.6,30.28,West,281,0.0,1.0,84,0.00,,---,0.00,VWS V14.01,2013-02-10 09:25:00,
2013-02-10 04:30:00,41.1,36.6,30.28,West,281,0.0,1.0,84,0.00,,---,0.00,VWS V14.01,2013-02-10 09:30:00,
2013-02-10 04:35:00,41.1,36.6,30.27,West,281,0.0,1.0,84,0.00,,---,0.00,VWS V14.01,2013-02-10 09:35:00,
2013-02-10 04:40:00,41.1,36.9,30.27,West,281,0.0,1.0,85,0.00,,---,0.00,VWS V14.01,2013-02-10 09:40:00,
2013-02-10 04:45:00,41.2,37.0,30.27,West,281,0.0,1.0,85,0.00,,---,0.00,VWS V14.01,2013-02-10 09:45:00,
2013-02-10 04:50:00,41.2,37.0,30.27,West,281,0.0,1.0,85,0.00,,---,0.00,VWS V14.01,2013-02-10 09:50:00,
2013-02-10 04:55:00,41.4,37.2,30.27,West,281,0.0,1.0,85,0.00,,---,0.00,VWS V14.01,2013-02-10 09:55:00,
2013-02-10 05:00:00,41.5,37.0,30.27,West,281,1.0,1.0,84,0.00,,---,0.00,VWS V14.01,2013-02-10 10:00:00,
2013-02-10 05:05:00,41.8,37.0,30.28,West,281,1.0,1.0,83,0.00,,---,0.00,VWS V14.01,2013-02-10 10:05:00,
2013-02-10 05:10:00,42.0,37.2,30.28,West,281,0.0,2.0,83,0.00,,---,0.00,VWS V14.01,2013-02-10 10:10:00,
2013-02-10 05:15:00,42.4,37.0,30.29,West,281,0.0,2.0,81,0.00,,---,0.00,VWS V14.01,2013-02-10 10:15:00,
2013-02-10 05:20:00,42.6,37.2,30.28,West,281,1.0,2.0,81,0.00,,---,0.00,VWS V14.01,2013-02-10 10:20:00,
2013-02-10 05:25:00,42.8,37.4,30.29,West,281,1.0,2.0,81,0.00,,---,0.00,VWS V14.01,2013-02-10 10:25:00,
2013-02-10 05:30:00,43.2,37.1,30.29,West,281,0.0,2.0,79,0.00,,---,0.00,VWS V14.01,2013-02-10 10:30:00,
2013-02-10 05:35:00,43.6,36.9,30.29,West,281,1.0,2.0,77,0.00,,---,0.00,VWS V14.01,2013-02-10 10:35:00,
2013-02-10 05:40:00,44.1,36.4,30.29,West,281,2.0,3.0,74,0.00,,---,0.00,VWS V14.01,2013-02-10 10:40:00,
2013-02-10 05:45:00,44.4,36.3,30.29,West,281,1.0,3.0,73,0.00,,---,0.00,VWS V14.01,2013-02-10 10:45:00,
2013-02-10 05:50:00,44.6,36.8,30.29,West,281,1.0,3.0,74,0.00,,---,0.00,VWS V14.01,2013-02-10 10:50:00,
2013-02-10 05:55:00,44.7,36.2,30.28,West,281,1.0,3.0,72,0.00,,---,0.00,VWS V14.01,2013-02-10 10:55:00,
2013-02-10 06:00:00,44.7,37.3,30.28,West,281,0.0,3.0,75,0.00,,---,0.00,VWS V14.01,2013-02-10 11:00:00,
2013-02-10 06:05:00,44.6,37.5,30.28,West,281,0.0,3.0,76,0.00,,---,0.00,VWS V14.01,2013-02-10 11:05:00,
2013-02-10 06:10:00,44.4,37.3,30.29,West,281,0.0,1.0,76,0.00,,---,0.00,VWS V14.01,2013-02-10 11:10:00,
2013-02-10 06:15:00,44.3,36.5,30.29,West,281,1.0,2.0,74,0.00,,---,0.00,VWS V14.01,2013-02-10 11:15:00,
2013-02-10 06:20:00,44.4,37.0,30.30,West,281,1.0,2.0,75,0.00,,---,0.00,VWS V14.01,2013-02-10 11:20:00,
2013-02-10 06:25:00,44.4,37.3,30.30,West,281,1.0,2.0,76,0.00,,---,0.00,VWS V14.01,2013-02-10 11:25:00,
2013-02-10 06:30:00,44.3,37.2,30.29,West,281,0.0,2.0,76,0.00,,---,0.00,VWS V14.01,2013-02-10 11:30:00,
2013-02-10 06:35:00,44.2,36.5,30.29,West,281,1.0,2.0,74,0.00,,---,0.00,VWS V14.01,2013-02-10 11:35:00,
2013-02-10 06:40:00,44.1,36.4,30.30,West,281,0.0,2.0,74,0.00,,---,0.00,VWS V14.01,2013-02-10 11:40:00,
2013-02-10 06:45:00,44.0,36.9,30.30,West,281,0.0,2.0,76,0.00,,---,0.00,VWS V14.01,2013-02-10 11:45:00,
2013-02-10 06:50:00,43.8,36.7,30.30,West,281,0.0,2.0,76,0.00,,---,0.00,VWS V14.01,2013-02-10 11:50:00,
2013-02-10 06:55:00,43.6,36.9,30.29,West,281,0.0,2.0,77,0.00,,---,0.00,VWS V14.01,2013-02-10 11:55:00,
2013-02-10 07:00:00,43.4,36.7,30.29,West,281,0.0,2.0,77,0.00,,---,0.00,VWS V14.01,2013-02-10 12:00:00,
2013-02-10 07:05:00,43.3,36.6,30.28,West,281,0.0,2.0,77,0.00,,---,0.00,VWS V14.01,2013-02-10 12:05:00,
2013-02-10 07:10:00,43.3,36.3,30.28,West,281,0.0,1.0,76,0.00,,---,0.00,VWS V14.01,2013-02-10 12:10:00,
2013-02-10 07:15:00,43.2,36.2,30.28,West,281,0.0,1.0,76,0.00,,---,0.00,VWS V14.01,2013-02-10 12:15:00,
2013-02-10 07:20:00,43.1,35.7,30.28,West,281,1.0,1.0,75,0.00,,---,0.00,VWS V14.01,2013-02-10 12:20:00,
2013-02-10 07:25:00,43.0,35.6,30.29,West,281,1.0,2.0,75,0.00,,---,0.00,VWS V14.01,2013-02-10 12:25:00,
2013-02-10 07:29:00,43.2,35.5,30.29,SE,141,2.0,3.0,74,0.00,,---,0.00,VWS V14.01,2013-02-10 12:29:00,
2013-02-10 07:34:00,43.3,35.9,30.30,SE,130,1.0,3.0,75,0.00,,---,0.00,VWS V14.01,2013-02-10 12:34:00,
2013-02-10 07:39:00,43.3,35.6,30.30,SE,129,1.0,2.0,74,0.00,,---,0.00,VWS V14.01,2013-02-10 12:39:00,
2013-02-10 07:45:00,43.4,36.0,30.30,SE,130,1.0,2.0,75,0.00,,---,0.00,VWS V14.01,2013-02-10 12:45:00,
2013-02-10 07:50:00,43.3,35.9,30.30,ESE,103,0.0,2.0,75,0.00,,---,0.00,VWS V14.01,2013-02-10 12:50:00,
2013-02-10 07:55:00,43.1,36.1,30.30,ESE,103,1.0,2.0,76,0.00,,---,0.00,VWS V14.01,2013-02-10 12:55:00,
2013-02-10 08:00:00,43.0,36.3,30.30,ESE,102,2.0,2.0,77,0.00,,---,0.00,VWS V14.01,2013-02-10 13:00:00,
2013-02-10 08:04:00,43.0,36.0,30.30,ESE,102,1.0,2.0,76,0.00,,---,0.00,VWS V14.01,2013-02-10 13:04:00,
2013-02-10 08:09:00,43.1,36.1,30.31,ESE,102,2.0,2.0,76,0.00,,---,0.00,VWS V14.01,2013-02-10 13:09:00,
2013-02-10 08:14:00,43.4,36.0,30.32,ESE,102,1.0,3.0,75,0.00,,---,0.00,VWS V14.01,2013-02-10 13:14:00,
2013-02-10 08:19:00,44.3,35.2,30.32,ESE,102,2.0,3.0,70,0.00,,---,0.00,VWS V14.01,2013-02-10 13:19:00,
2013-02-10 08:24:00,45.3,36.8,30.32,ESE,123,1.0,3.0,72,0.00,,---,0.00,VWS V14.01,2013-02-10 13:24:00,
2013-02-10 08:29:00,45.8,36.6,30.32,ESE,123,1.0,3.0,70,0.00,,---,0.00,VWS V14.01,2013-02-10 13:29:00,
2013-02-10 08:34:00,46.1,36.5,30.31,East,96,1.0,3.0,69,0.00,,---,0.00,VWS V14.01,2013-02-10 13:34:00,
2013-02-10 08:39:00,46.5,36.5,30.31,South,180,0.0,2.0,68,0.00,,---,0.00,VWS V14.01,2013-02-10 13:39:00,
2013-02-10 08:44:00,46.9,36.5,30.30,South,180,1.0,2.0,67,0.00,,---,0.00,VWS V14.01,2013-02-10 13:44:00,
2013-02-10 08:49:00,47.3,35.8,30.30,South,183,1.0,4.0,64,0.00,,---,0.00,VWS V14.01,2013-02-10 13:49:00,
2013-02-10 08:54:00,47.8,36.6,30.30,South,183,1.0,4.0,65,0.00,,---,0.00,VWS V14.01,2013-02-10 13:54:00,
2013-02-10 08:59:00,48.1,36.5,30.30,SW,218,1.0,4.0,64,0.00,,---,0.00,VWS V14.01,2013-02-10 13:59:00,
2013-02-10 09:04:00,48.3,36.7,30.31,SSW,200,2.0,4.0,64,0.00,,---,0.00,VWS V14.01,2013-02-10 14:04:00,
2013-02-10 09:09:00,48.6,36.6,30.31,South,186,0.0,2.0,63,0.00,,---,0.00,VWS V14.01,2013-02-10 14:09:00,
2013-02-10 09:14:00,48.9,36.1,30.31,South,175,0.0,2.0,61,0.00,,---,0.00,VWS V14.01,2013-02-10 14:14:00,
2013-02-10 09:19:00,49.2,36.3,30.31,South,172,1.0,2.0,61,0.00,,---,0.00,VWS V14.01,2013-02-10 14:19:00,
2013-02-10 09:24:00,49.7,36.4,30.30,South,180,0.0,5.0,60,0.00,,---,0.00,VWS V14.01,2013-02-10 14:24:00,
2013-02-10 09:29:00,50.3,37.0,30.30,WNW,301,1.0,5.0,60,0.00,,---,0.00,VWS V14.01,2013-02-10 14:29:00,
2013-02-10 09:34:00,50.9,36.2,30.30,WNW,301,0.0,5.0,57,0.00,,---,0.00,VWS V14.01,2013-02-10 14:34:00,
2013-02-10 09:39:00,51.5,37.2,30.30,ENE,72,3.0,3.0,58,0.00,,---,0.00,VWS V14.01,2013-02-10 14:39:00,
2013-02-10 09:44:00,52.3,37.5,30.30,South,183,1.0,5.0,57,0.00,,---,0.00,VWS V14.01,2013-02-10 14:44:00,
2013-02-10 09:49:00,53.1,36.9,30.30,ENE,67,1.0,5.0,54,0.00,,---,0.00,VWS V14.01,2013-02-10 14:49:00,
2013-02-10 09:54:00,53.9,37.7,30.30,ENE,69,1.0,5.0,54,0.00,,---,0.00,VWS V14.01,2013-02-10 14:54:00,
2013-02-10 09:59:00,54.1,37.4,30.30,SSE,156,1.0,5.0,53,0.00,,---,0.00,VWS V14.01,2013-02-10 14:59:00,
2013-02-10 10:04:00,54.1,37.8,30.30,SSE,155,2.0,5.0,54,0.00,,---,0.00,VWS V14.01,2013-02-10 15:04:00,
2013-02-10 10:09:00,54.0,37.8,30.28,SE,138,0.0,3.0,54,0.00,,---,0.00,VWS V14.01,2013-02-10 15:09:00,
2013-02-10 10:14:00,53.9,36.7,30.28,SSE,148,0.0,4.0,52,0.00,,---,0.00,VWS V14.01,2013-02-10 15:14:00,
2013-02-10 10:19:00,54.0,36.3,30.28,ESE,111,1.0,4.0,51,0.00,,---,0.00,VWS V14.01,2013-02-10 15:19:00,
2013-02-10 10:24:00,54.0,37.3,30.28,ESE,111,0.0,4.0,53,0.00,,---,0.00,VWS V14.01,2013-02-10 15:24:00,
2013-02-10 10:29:00,54.2,37.5,30.27,SSW,210,2.0,4.0,53,0.00,,---,0.00,VWS V14.01,2013-02-10 15:29:00,
2013-02-10 10:34:00,54.6,37.3,30.27,West,279,3.0,6.0,52,0.00,,---,0.00,VWS V14.01,2013-02-10 15:34:00,
2013-02-10 10:39:00,55.1,37.3,30.27,SW,217,3.0,6.0,51,0.00,,---,0.00,VWS V14.01,2013-02-10 15:39:00,
2013-02-10 10:44:00,55.4,37.1,30.27,WSW,244,2.0,6.0,50,0.00,,---,0.00,VWS V14.01,2013-02-10 15:44:00,
2013-02-10 10:49:00,55.5,36.7,30.26,SSW,210,2.0,6.0,49,0.00,,---,0.00,VWS V14.01,2013-02-10 15:49:00,
2013-02-10 10:54:00,55.5,36.2,30.27,ESE,117,0.0,6.0,48,0.00,,---,0.00,VWS V14.01,2013-02-10 15:54:00,
2013-02-10 10:59:00,55.3,37.0,30.28,SE,137,5.0,6.0,50,0.00,,---,0.00,VWS V14.01,2013-02-10 15:59:00,
2013-02-10 11:04:00,55.2,35.9,30.28,SSE,168,2.0,11.0,48,0.00,,---,0.00,VWS V14.01,2013-02-10 16:04:00,
2013-02-10 11:09:00,55.3,36.0,30.27,WSW,248,1.0,2.0,48,0.00,,---,0.00,VWS V14.01,2013-02-10 16:09:00,
2013-02-10 11:14:00,55.5,36.2,30.26,West,261,1.0,2.0,48,0.00,,---,0.00,VWS V14.01,2013-02-10 16:14:00,
2013-02-10 11:19:00,55.8,37.5,30.25,West,260,0.0,2.0,50,0.00,,---,0.00,VWS V14.01,2013-02-10 16:19:00,
2013-02-10 11:24:00,55.9,36.5,30.25,East,79,1.0,5.0,48,0.00,,---,0.00,VWS V14.01,2013-02-10 16:24:00,
2013-02-10 11:29:00,55.9,36.5,30.25,South,180,1.0,5.0,48,0.00,,---,0.00,VWS V14.01,2013-02-10 16:29:00,
2013-02-10 11:34:00,55.8,35.3,30.24,ESE,109,1.0,5.0,46,0.00,,---,0.00,VWS V14.01,2013-02-10 16:34:00,
2013-02-10 11:39:00,55.8,35.3,30.24,SSW,199,1.0,5.0,46,0.00,,---,0.00,VWS V14.01,2013-02-10 16:39:00,
2013-02-10 11:44:00,55.8,35.3,30.24,SW,231,2.0,5.0,46,0.00,,---,0.00,VWS V14.01,2013-02-10 16:44:00,
2013-02-10 11:49:00,55.7,35.3,30.24,WSW,246,1.0,5.0,46,0.00,,---,0.00,VWS V14.01,2013-02-10 16:49:00,
2013-02-10 11:54:00,55.7,34.7,30.23,South,186,0.0,5.0,45,0.00,,---,0.00,VWS V14.01,2013-02-10 16:54:00,
2013-02-10 11:59:00,55.7,34.7,30.23,NW,315,1.0,5.0,45,0.00,,---,0.00,VWS V14.01,2013-02-10 16:59:00,
2013-02-10 12:04:00,55.7,35.3,30.23,WSW,246,2.0,5.0,46,0.00,,---,0.00,VWS V14.01,2013-02-10 17:04:00,
2013-02-10 12:09:00,55.8,34.2,30.22,WNW,295,1.0,4.0,44,0.00,,---,0.00,VWS V14.01,2013-02-10 17:09:00,
2013-02-10 12:14:00,56.2,35.2,30.21,NE,40,6.0,9.0,45,0.00,,---,0.00,VWS V14.01,2013-02-10 17:14:00,
2013-02-10 12:19:00,56.5,33.7,30.21,NW,314,1.0,13.0,42,0.00,,---,0.00,VWS V14.01,2013-02-10 17:19:00,
2013-02-10 12:24:00,56.6,34.4,30.20,South,183,1.0,13.0,43,0.00,,---,0.00,VWS V14.01,2013-02-10 17:24:00,
2013-02-10 12:29:00,56.8,35.1,30.20,SE,140,1.0,13.0,44,0.00,,---,0.00,VWS V14.01,2013-02-10 17:29:00,
2013-02-10 12:34:00,56.9,34.1,30.19,WNW,295,0.0,13.0,42,0.00,,---,0.00,VWS V14.01,2013-02-10 17:34:00,
2013-02-10 12:39:00,56.9,34.7,30.19,SE,130,1.0,4.0,43,0.00,,---,0.00,VWS V14.01,2013-02-10 17:39:00,
2013-02-10 12:44:00,56.7,34.5,30.18,SSE,148,3.0,5.0,43,0.00,,---,0.00,VWS V14.01,2013-02-10 17:44:00,
2013-02-10 12:49:00,56.6,34.4,30.19,West,265,3.0,5.0,43,0.00,,---,0.00,VWS V14.01,2013-02-10 17:49:00,
2013-02-10 12:54:00,56.4,34.2,30.18,ESE,122,3.0,6.0,43,0.00,,---,0.00,VWS V14.01,2013-02-10 17:54:00,
2013-02-10 12:59:00,56.4,35.3,30.19,SSW,206,2.0,7.0,45,0.00,,---,0.00,VWS V14.01,2013-02-10 17:59:00,
2013-02-10 13:04:00,56.6,36.1,30.18,WSW,238,3.0,8.0,46,0.00,,---,0.00,VWS V14.01,2013-02-10 18:04:00,
2013-02-10 13:09:00,56.6,36.1,30.18,SW,220,2.0,5.0,46,0.00,,---,0.00,VWS V14.01,2013-02-10 18:09:00,
2013-02-10 13:14:00,56.6,36.6,30.17,WNW,284,2.0,5.0,47,0.00,,---,0.00,VWS V14.01,2013-02-10 18:14:00,
2013-02-10 13:19:00,56.5,37.1,30.17,NNE,15,1.0,5.0,48,0.00,,---,0.00,VWS V14.01,2013-02-10 18:19:00,
2013-02-10 13:25:00,56.4,37.5,30.17,ENE,75,2.0,5.0,49,0.00,,---,0.00,VWS V14.01,2013-02-10 18:25:00,
2013-02-10 13:30:00,56.3,37.4,30.17,SSW,197,1.0,7.0,49,0.00,,---,0.00,VWS V14.01,2013-02-10 18:30:00,
2013-02-10 13:34:00,56.1,38.2,30.17,WNW,290,2.0,7.0,51,0.00,,---,0.00,VWS V14.01,2013-02-10 18:34:00,
2013-02-10 13:39:00,55.8,38.9,30.17,South,184,1.0,2.0,53,0.00,,---,0.00,VWS V14.01,2013-02-10 18:39:00,
2013-02-10 13:44:00,55.5,39.1,30.17,SSW,196,1.0,3.0,54,0.00,,---,0.00,VWS V14.01,2013-02-10 18:44:00,
2013-02-10 13:49:00,55.1,39.2,30.17,SSW,196,0.0,3.0,55,0.00,,---,0.00,VWS V14.01,2013-02-10 18:49:00,
2013-02-10 13:54:00,54.8,42.9,30.17,SE,130,1.0,3.0,64,0.00,,---,0.00,VWS V14.01,2013-02-10 18:54:00,
2013-02-10 13:59:00,53.9,44.3,30.17,SE,130,0.0,3.0,70,0.01,,---,0.01,VWS V14.01,2013-02-10 18:59:00,
2013-02-10 14:04:00,52.5,44.8,30.16,SE,130,1.0,3.0,75,0.03,,---,0.03,VWS V14.01,2013-02-10 19:04:00,
2013-02-10 14:09:00,51.2,45.6,30.16,SE,125,1.0,2.0,81,0.03,,---,0.03,VWS V14.01,2013-02-10 19:09:00,
2013-02-10 14:14:00,50.2,45.2,30.15,SE,125,0.0,2.0,83,0.03,,---,0.03,VWS V14.01,2013-02-10 19:14:00,
2013-02-10 14:19:00,49.5,45.5,30.15,SE,125,1.0,2.0,86,0.04,,---,0.04,VWS V14.01,2013-02-10 19:19:00,
2013-02-10 14:24:00,49.1,46.0,30.15,SE,125,1.0,3.0,89,0.04,,---,0.04,VWS V14.01,2013-02-10 19:24:00,
2013-02-10 14:29:00,48.7,45.6,30.15,SE,125,0.0,3.0,89,0.05,,---,0.05,VWS V14.01,2013-02-10 19:29:00,
2013-02-10 14:34:00,48.6,45.5,30.14,SE,125,1.0,3.0,89,0.05,,---,0.05,VWS V14.01,2013-02-10 19:34:00,
2013-02-10 14:39:00,48.6,46.1,30.14,SE,125,1.0,2.0,91,0.06,,---,0.06,VWS V14.01,2013-02-10 19:39:00,
2013-02-10 14:44:00,48.6,46.1,30.13,SE,125,1.0,2.0,91,0.06,,---,0.06,VWS V14.01,2013-02-10 19:44:00,
2013-02-10 14:49:00,48.4,45.9,30.14,SE,125,0.0,2.0,91,0.06,,---,0.06,VWS V14.01,2013-02-10 19:49:00,
2013-02-10 14:54:00,48.3,46.1,30.13,SE,125,0.0,2.0,92,0.07,,---,0.07,VWS V14.01,2013-02-10 19:54:00,
2013-02-10 14:59:00,48.3,46.1,30.12,SE,125,1.0,2.0,92,0.07,,---,0.07,VWS V14.01,2013-02-10 19:59:00,
2013-02-10 15:04:00,48.3,46.1,30.12,SE,125,1.0,2.0,92,0.07,,---,0.07,VWS V14.01,2013-02-10 20:04:00,
2013-02-10 15:09:00,48.3,46.4,30.12,ESE,121,1.0,2.0,93,0.05,,---,0.08,VWS V14.01,2013-02-10 20:09:00,
2013-02-10 15:14:00,48.3,46.4,30.12,ESE,121,0.0,2.0,93,0.06,,---,0.09,VWS V14.01,2013-02-10 20:14:00,
2013-02-10 15:19:00,48.3,46.4,30.13,ESE,121,1.0,2.0,93,0.08,,---,0.11,VWS V14.01,2013-02-10 20:19:00,
2013-02-10 15:24:00,48.2,46.3,30.13,ESE,121,2.0,3.0,93,0.10,,---,0.13,VWS V14.01,2013-02-10 20:24:00,
2013-02-10 15:29:00,48.1,46.2,30.13,ESE,103,0.0,4.0,93,0.12,,---,0.15,VWS V14.01,2013-02-10 20:29:00,
2013-02-10 15:34:00,47.9,46.0,30.11,ESE,107,1.0,6.0,93,0.13,,---,0.16,VWS V14.01,2013-02-10 20:34:00,
2013-02-10 15:39:00,47.9,46.0,30.11,ESE,107,1.0,2.0,93,0.11,,---,0.16,VWS V14.01,2013-02-10 20:39:00,
2013-02-10 15:44:00,47.8,46.2,30.11,ESE,107,1.0,2.0,94,0.13,,---,0.18,VWS V14.01,2013-02-10 20:44:00,
2013-02-10 15:49:00,47.8,46.2,30.12,ESE,107,0.0,2.0,94,0.13,,---,0.18,VWS V14.01,2013-02-10 20:49:00,
2013-02-10 15:54:00,47.8,46.2,30.12,ESE,107,1.0,2.0,94,0.14,,---,0.19,VWS V14.01,2013-02-10 20:54:00,
2013-02-10 15:59:00,47.8,46.2,30.12,ESE,107,1.0,2.0,94,0.15,,---,0.20,VWS V14.01,2013-02-10 20:59:00,
2013-02-10 16:04:00,47.7,46.1,30.12,ESE,107,1.0,3.0,94,0.16,,---,0.21,VWS V14.01,2013-02-10 21:04:00,
2013-02-10 16:09:00,47.7,46.1,30.12,ESE,107,0.0,2.0,94,0.17,,---,0.24,VWS V14.01,2013-02-10 21:09:00,
2013-02-10 16:14:00,47.6,46.0,30.12,ESE,107,1.0,2.0,94,0.20,,---,0.27,VWS V14.01,2013-02-10 21:14:00,
2013-02-10 16:19:00,47.6,46.0,30.12,ESE,107,1.0,2.0,94,0.23,,---,0.30,VWS V14.01,2013-02-10 21:19:00,
2013-02-10 16:24:00,47.6,46.2,30.13,ESE,107,0.0,2.0,95,0.27,,---,0.34,VWS V14.01,2013-02-10 21:24:00,
2013-02-10 16:29:00,47.6,46.2,30.12,ESE,106,0.0,2.0,95,0.31,,---,0.38,VWS V14.01,2013-02-10 21:29:00,
2013-02-10 16:34:00,47.5,46.1,30.11,ESE,106,1.0,2.0,95,0.34,,---,0.41,VWS V14.01,2013-02-10 21:34:00,
2013-02-10 16:39:00,47.6,46.2,30.11,South,169,1.0,3.0,95,0.29,,---,0.45,VWS V14.01,2013-02-10 21:39:00,
2013-02-10 16:44:00,47.6,46.2,30.11,South,170,0.0,3.0,95,0.30,,---,0.46,VWS V14.01,2013-02-10 21:44:00,
2013-02-10 16:49:00,47.7,46.3,30.12,South,170,0.0,3.0,95,0.31,,---,0.47,VWS V14.01,2013-02-10 21:49:00,
2013-02-10 16:54:00,47.8,46.4,30.13,South,170,0.0,3.0,95,0.33,,---,0.49,VWS V14.01,2013-02-10 21:54:00,
2013-02-10 16:59:00,47.9,46.5,30.12,South,170,0.0,3.0,95,0.36,,---,0.52,VWS V14.01,2013-02-10 21:59:00,
2013-02-10 17:04:00,47.9,46.5,30.11,ESE,109,0.0,3.0,95,0.38,,---,0.54,VWS V14.01,2013-02-10 22:04:00,
2013-02-10 17:09:00,48.0,46.6,30.11,ESE,109,0.0,1.0,95,0.34,,---,0.56,VWS V14.01,2013-02-10 22:09:00,
2013-02-10 17:14:00,48.1,46.7,30.10,South,174,2.0,2.0,95,0.36,,---,0.58,VWS V14.01,2013-02-10 22:14:00,
2013-02-10 17:19:00,48.2,46.8,30.12,ESE,107,1.0,4.0,95,0.37,,---,0.59,VWS V14.01,2013-02-10 22:19:00,
2013-02-10 17:24:00,48.3,47.2,30.13,ESE,107,1.0,4.0,96,0.37,,---,0.59,VWS V14.01,2013-02-10 22:24:00,
2013-02-10 17:29:00,48.4,47.3,30.14,ESE,107,2.0,4.0,96,0.37,,---,0.59,VWS V14.01,2013-02-10 22:29:00,
2013-02-10 17:34:00,48.4,47.3,30.15,East,96,1.0,4.0,96,0.38,,---,0.60,VWS V14.01,2013-02-10 22:34:00,
2013-02-10 17:39:00,48.5,47.4,30.15,East,95,2.0,2.0,96,0.19,,---,0.61,VWS V14.01,2013-02-10 22:39:00,
2013-02-10 17:44:00,48.6,47.5,30.16,East,87,2.0,4.0,96,0.20,,---,0.62,VWS V14.01,2013-02-10 22:44:00,
2013-02-10 17:49:00,48.8,47.7,30.16,East,87,0.0,4.0,96,0.20,,---,0.62,VWS V14.01,2013-02-10 22:49:00,
2013-02-10 17:54:00,48.8,47.7,30.15,East,87,1.0,4.0,96,0.22,,---,0.64,VWS V14.01,2013-02-10 22:54:00,
2013-02-10 17:59:00,48.9,47.8,30.12,NW,304,1.0,4.0,96,0.23,,---,0.65,VWS V14.01,2013-02-10 22:59:00,
2013-02-10 18:04:00,48.9,47.8,30.13,ESE,118,2.0,4.0,96,0.24,,---,0.66,VWS V14.01,2013-02-10 23:04:00,
2013-02-10 18:09:00,49.0,47.9,30.12,NE,38,0.0,2.0,96,0.11,,---,0.66,VWS V14.01,2013-02-10 23:09:00,
2013-02-10 18:14:00,49.0,47.9,30.14,East,79,3.0,3.0,96,0.12,,---,0.67,VWS V14.01,2013-02-10 23:14:00,
2013-02-10 18:19:00,49.0,47.9,30.14,East,96,0.0,3.0,96,0.12,,---,0.67,VWS V14.01,2013-02-10 23:19:00,
2013-02-10 18:24:00,49.1,48.0,30.15,East,96,1.0,3.0,96,0.12,,---,0.67,VWS V14.01,2013-02-10 23:24:00,
2013-02-10 18:29:00,49.1,48.0,30.15,East,96,0.0,3.0,96,0.12,,---,0.67,VWS V14.01,2013-02-10 23:29:00,
2013-02-10 18:34:00,49.2,48.1,30.15,SE,131,1.0,3.0,96,0.12,,---,0.67,VWS V14.01,2013-02-10 23:34:00,
2013-02-10 18:39:00,49.2,48.1,30.15,SE,125,0.0,2.0,96,0.08,,---,0.68,VWS V14.01,2013-02-10 23:39:00,
2013-02-10 18:44:00,49.2,48.1,30.12,WSW,241,0.0,2.0,96,0.08,,---,0.68,VWS V14.01,2013-02-10 23:44:00,
2013-02-10 18:49:00,49.2,48.1,30.10,WNW,294,2.0,2.0,96,0.09,,---,0.69,VWS V14.01,2013-02-10 23:49:00,
2013-02-10 18:54:00,49.2,48.1,30.09,WSW,252,1.0,9.0,96,0.09,,---,0.69,VWS V14.01,2013-02-10 23:54:00,
2013-02-10 18:59:00,49.4,48.3,30.09,East,94,3.0,9.0,96,0.10,,---,0.70,VWS V14.01,2013-02-10 23:59:00,
2013-02-10 19:04:00,49.5,48.4,30.10,ESE,103,1.0,9.0,96,0.10,,---,0.70,VWS V14.01,2013-02-11 00:04:00,
2013-02-10 19:09:00,49.6,48.5,30.11,NNE,22,0.0,3.0,96,0.04,,---,0.70,VWS V14.01,2013-02-11 00:09:00,
2013-02-10 19:14:00,49.7,48.6,30.11,ESE,107,1.0,3.0,96,0.05,,---,0.71,VWS V14.01,2013-02-11 00:14:00,
2013-02-10 19:19:00,49.8,48.7,30.11,East,80,2.0,3.0,96,0.05,,---,0.71,VWS V14.01,2013-02-11 00:19:00,
2013-02-10 19:24:00,49.8,48.7,30.11,WSW,243,1.0,3.0,96,0.05,,---,0.71,VWS V14.01,2013-02-11 00:24:00,
2013-02-10 19:29:00,49.9,48.8,30.09,SSW,196,1.0,3.0,96,0.05,,---,0.71,VWS V14.01,2013-02-11 00:29:00,
2013-02-10 19:34:00,49.9,48.8,30.09,SE,135,2.0,6.0,96,0.06,,---,0.72,VWS V14.01,2013-02-11 00:34:00,
2013-02-10 19:39:00,49.9,48.8,30.10,ESE,103,1.0,3.0,96,0.04,,---,0.72,VWS V14.01,2013-02-11 00:39:00,
2013-02-10 19:44:00,50.0,48.9,30.09,SSW,192,1.0,5.0,96,0.04,,---,0.72,VWS V14.01,2013-02-11 00:44:00,
2013-02-10 19:49:00,50.1,49.0,30.08,SSW,192,0.0,5.0,96,0.04,,---,0.72,VWS V14.01,2013-02-11 00:49:00,
2013-02-10 19:54:00,50.0,48.9,30.09,South,169,1.0,5.0,96,0.04,,---,0.72,VWS V14.01,2013-02-11 00:54:00,
2013-02-10 19:59:00,50.1,49.0,30.09,North,9,0.0,5.0,96,0.04,,---,0.72,VWS V14.01,2013-02-11 00:59:00,
2013-02-10 20:04:00,50.2,49.1,30.08,SE,146,0.0,5.0,96,0.04,,---,0.72,VWS V14.01,2013-02-11 01:04:00,
2013-02-10 20:09:00,50.2,49.1,30.09,ENE,69,2.0,4.0,96,0.02,,---,0.72,VWS V14.01,2013-02-11 01:09:00,
2013-02-10 20:14:00,50.4,49.3,30.09,East,90,1.0,4.0,96,0.02,,---,0.72,VWS V14.01,2013-02-11 01:14:00,
2013-02-10 20:19:00,50.5,49.4,30.10,NE,38,2.0,4.0,96,0.02,,---,0.72,VWS V14.01,2013-02-11 01:19:00,
2013-02-10 20:24:00,50.5,49.4,30.08,East,89,0.0,4.0,96,0.02,,---,0.72,VWS V14.01,2013-02-11 01:24:00,
2013-02-10 20:29:00,50.5,49.4,30.09,East,89,2.0,4.0,96,0.02,,---,0.72,VWS V14.01,2013-02-11 01:29:00,
2013-02-10 20:34:00,50.5,49.4,30.09,East,83,1.0,4.0,96,0.02,,---,0.72,VWS V14.01,2013-02-11 01:34:00,
2013-02-10 20:39:00,50.6,49.5,30.10,East,100,0.0,3.0,96,0.00,,---,0.72,VWS V14.01,2013-02-11 01:39:00,
2013-02-10 20:44:00,50.6,49.5,30.10,East,99,1.0,3.0,96,0.00,,---,0.72,VWS V14.01,2013-02-11 01:44:00,
2013-02-10 20:49:00,50.6,49.5,30.10,East,94,1.0,3.0,96,0.00,,---,0.72,VWS V14.01,2013-02-11 01:49:00,
2013-02-10 20:54:00,50.7,49.6,30.10,East,94,0.0,3.0,96,0.00,,---,0.72,VWS V14.01,2013-02-11 01:54:00,
2013-02-10 20:59:00,50.7,49.6,30.09,NE,48,1.0,3.0,96,0.00,,---,0.72,VWS V14.01,2013-02-11 01:59:00,
2013-02-10 21:04:00,50.7,49.6,30.09,East,92,1.0,3.0,96,0.00,,---,0.72,VWS V14.01,2013-02-11 02:04:00,
2013-02-10 21:09:00,50.7,49.6,30.08,East,92,0.0,2.0,96,0.00,,---,0.72,VWS V14.01,2013-02-11 02:09:00,
2013-02-10 21:14:00,50.7,49.6,30.08,East,92,0.0,2.0,96,0.00,,---,0.72,VWS V14.01,2013-02-11 02:14:00,
2013-02-10 21:19:00,50.7,49.6,30.08,East,92,2.0,2.0,96,0.00,,---,0.72,VWS V14.01,2013-02-11 02:19:00,
2013-02-10 21:24:00,50.7,49.6,30.07,East,92,0.0,2.0,96,0.00,,---,0.72,VWS V14.01,2013-02-11 02:24:00,
2013-02-10 21:29:00,50.8,49.7,30.07,East,95,1.0,2.0,96,0.00,,---,0.72,VWS V14.01,2013-02-11 02:29:00,
2013-02-10 21:34:00,50.8,49.7,30.07,East,94,1.0,2.0,96,0.00,,---,0.72,VWS V14.01,2013-02-11 02:34:00,
2013-02-10 21:39:00,50.9,49.8,30.07,East,94,0.0,2.0,96,0.00,,---,0.72,VWS V14.01,2013-02-11 02:39:00,
2013-02-10 21:44:00,50.9,49.8,30.06,East,94,1.0,2.0,96,0.00,,---,0.72,VWS V14.01,2013-02-11 02:44:00,
2013-02-10 21:49:00,50.9,49.8,30.06,East,94,1.0,2.0,96,0.00,,---,0.72,VWS V14.01,2013-02-11 02:49:00,
2013-02-10 21:54:00,51.0,49.9,30.07,NE,39,1.0,2.0,96,0.00,,---,0.72,VWS V14.01,2013-02-11 02:54:00,
2013-02-10 21:59:00,51.0,49.9,30.06,ESE,106,0.0,2.0,96,0.00,,---,0.72,VWS V14.01,2013-02-11 02:59:00,
2013-02-10 22:04:00,51.0,49.9,30.06,ESE,115,0.0,2.0,96,0.00,,---,0.72,VWS V14.01,2013-02-11 03:04:00,
2013-02-10 22:09:00,51.2,50.1,30.06,ESE,104,3.0,3.0,96,0.00,,---,0.72,VWS V14.01,2013-02-11 03:09:00,
2013-02-10 22:14:00,51.3,50.2,30.06,ESE,104,1.0,3.0,96,0.00,,---,0.72,VWS V14.01,2013-02-11 03:14:00,
2013-02-10 22:19:00,51.3,50.2,30.05,ESE,104,1.0,3.0,96,0.00,,---,0.72,VWS V14.01,2013-02-11 03:19:00,
2013-02-10 22:24:00,51.4,50.3,30.05,ESE,111,2.0,4.0,96,0.00,,---,0.72,VWS V14.01,2013-02-11 03:24:00,
2013-02-10 22:29:00,51.4,50.3,30.05,ESE,112,1.0,4.0,96,0.00,,---,0.72,VWS V14.01,2013-02-11 03:29:00,
2013-02-10 22:34:00,51.4,50.3,30.05,ENE,77,2.0,4.0,96,0.00,,---,0.72,VWS V14.01,2013-02-11 03:34:00,
2013-02-10 22:39:00,51.4,50.3,30.05,East,84,1.0,3.0,96,0.00,,---,0.72,VWS V14.01,2013-02-11 03:39:00,
2013-02-10 22:44:00,51.4,50.3,30.05,East,82,1.0,3.0,96,0.00,,---,0.72,VWS V14.01,2013-02-11 03:44:00,
2013-02-10 22:49:00,51.5,50.4,30.05,East,95,5.0,5.0,96,0.00,,---,0.72,VWS V14.01,2013-02-11 03:49:00,
2013-02-10 22:54:00,51.4,50.3,30.05,East,88,0.0,5.0,96,0.00,,---,0.72,VWS V14.01,2013-02-11 03:54:00,
2013-02-10 22:59:00,51.4,50.3,30.06,East,80,2.0,5.0,96,0.00,,---,0.72,VWS V14.01,2013-02-11 03:59:00,
2013-02-10 23:04:00,51.4,50.3,30.06,East,80,1.0,5.0,96,0.00,,---,0.72,VWS V14.01,2013-02-11 04:04:00,
2013-02-10 23:09:00,51.4,50.3,30.05,East,80,2.0,3.0,96,0.00,,---,0.72,VWS V14.01,2013-02-11 04:09:00,
2013-02-10 23:14:00,51.4,50.3,30.05,ENE,71,0.0,4.0,96,0.00,,---,0.72,VWS V14.01,2013-02-11 04:14:00,
2013-02-10 23:19:00,51.4,50.3,30.05,ENE,67,2.0,4.0,96,0.00,,---,0.72,VWS V14.01,2013-02-11 04:19:00,
2013-02-10 23:24:00,51.5,50.4,30.05,East,88,2.0,4.0,96,0.00,,---,0.72,VWS V14.01,2013-02-11 04:24:00,
2013-02-10 23:29:00,51.5,50.4,30.05,East,95,2.0,4.0,96,0.00,,---,0.72,VWS V14.01,2013-02-11 04:29:00,
2013-02-10 23:34:00,51.5,50.4,30.06,East,94,1.0,4.0,96,0.00,,---,0.72,VWS V14.01,2013-02-11 04:34:00,
2013-02-10 23:39:00,51.6,50.5,30.06,East,82,1.0,3.0,96,0.00,,---,0.72,VWS V14.01,2013-02-11 04:39:00,
2013-02-10 23:44:00,51.7,50.6,30.06,East,85,1.0,3.0,96,0.00,,---,0.72,VWS V14.01,2013-02-11 04:44:00,
2013-02-10 23:49:00,51.7,50.6,30.06,East,94,0.0,4.0,96,0.00,,---,0.72,VWS V14.01,2013-02-11 04:49:00,
2013-02-10 23:54:00,51.8,50.7,30.06,ENE,68,1.0,4.0,96,0.00,,---,0.72,VWS V14.01,2013-02-11 04:54:00,
2013-02-10 23:59:00,51.8,50.7,30.06,East,101,1.0,5.0,96,0.00,,---,0.72,VWS V14.01,2013-02-11 04:59:00,